Location: Doijum
(53.1651°N, 5.5317°E)
Time: 11:25:32
(UTC+00:00)

Daily predictions for brighter satellites

Satellite Brightness Start Highest point End
(mag) Time Altitude Azimuth Time Altitude Azimuth Time Altitude Azimuth
GEOS 3 Rocket 4.1 20:14:20 10° NE 20:19:34 69° NW 20:24:41 10° WSW
Ariane Rocket 3.9 20:15:14 10° S 20:20:08 49° W 20:25:04 10° NNW
SL-16 R/B 2.3 20:16:13 10° NNW 20:21:56 71° NE 20:27:36 10° SE
Cosmos 1782 3.3 20:21:55 10° N 20:25:49 45° ENE 20:29:41 10° SSE
CZ-4C R/B 4.1 20:21:05 10° WNW 20:26:20 36° NNW 20:32:41 10° NE
Cosmos 371 Rocket 4.0 20:21:50 10° NNW 20:26:32 53° WSW 20:31:12 10° S
COSMOS 2428 4.4 20:24:10 10° NNW 20:28:47 24° NNE 20:33:24 10° E
ARIANE 5 R/B 2.9 20:27:22 10° SSE 20:31:45 56° ENE 20:36:06 10° N
Cosmos 1271 Rocket 2.8 20:28:26 10° N 20:32:26 73° ENE 20:36:26 10° SSE
USA 276 3.3 20:33:09 10° W 20:35:56 29° SSW 20:38:32 11° SE
BREEZE-M DEB (TANK) 3.5 20:34:35 10° WSW 20:37:19 30° SSW 20:43:07 10° SE
NOSS 3-4 (A) 4.3 20:31:34 10° WSW 20:37:26 56° NNW 20:43:56 10° NE
NOSS 3-4 (C) 4.3 20:31:40 10° WSW 20:37:32 56° NNW 20:44:02 10° NE
SPOT 1/Viking Rocket 3.7 20:32:47 10° S 20:37:59 77° WSW 20:43:15 10° NNW
Cosmos 1151 Rocket 3.4 20:35:09 10° N 20:39:25 51° ENE 20:43:40 10° SSE
Cosmos 1076 Rocket 4.0 20:35:42 10° SSW 20:40:01 67° WNW 20:44:25 10° N
ATLAS 5 CENTAUR R/B 3.4 20:36:29 10° NW 20:40:59 34° NNE 20:46:16 10° E
Cosmos 1766 Rocket 4.4 20:38:04 10° SSE 20:42:01 33° E 20:45:58 10° NNE
Cosmos 1328 Rocket 4.1 20:39:20 10° N 20:43:38 45° ENE 20:47:39 11° SE
ATLAS 2AS CENTAUR R/B 3.3 20:38:23 10° SW 20:46:19 76° NW 20:53:59 10° NE
ATLAS 3B R/B 3.7 20:42:24 10° NW 20:48:56 41° WSW 20:55:41 10° S
Cosmos 923 Rocket 4.4 20:44:18 10° S 20:49:22 47° ESE 20:54:30 10° NE
Cosmos 1833 Rocket 4.2 20:45:55 10° WSW 20:51:15 41° NW 20:56:36 10° NNE
Terra 2.2 20:47:56 11° SE 20:52:20 54° ENE 20:57:00 10° N
USA 267 4.5 20:48:50 10° E 20:53:06 18° ESE 20:57:20 10° SSE
SPOT 5 2.6 20:50:48 11° SSE 20:54:58 74° ENE 20:59:24 10° NNW
Cosmos 2056 Rocket 3.7 20:52:06 10° NNW 20:57:30 66° ENE 21:02:09 13° SE
Cosmos 2082 Rocket 2.8 20:52:09 10° SW 20:57:44 61° NW 21:03:24 10° NNE
Cosmos 1092 Rocket 4.0 20:51:47 10° S 20:58:03 85° E 21:04:26 10° NNE
Cosmos 1633 4.3 20:56:07 10° SW 20:59:26 34° WNW 21:02:47 10° N
NOSS 2-1 (C) 4.5 21:00:50 15° SE 21:01:26 16° ESE 21:03:33 10° E
BREEZE-M DEB (TANK) 2.5 21:00:27 10° WSW 21:02:28 27° S 21:03:12 20° SE
Cosmos 2360 Rocket 2.3 20:59:39 10° NNW 21:05:19 71° NE 21:10:08 14° SE
ERS-1 Rocket 3.0 21:00:35 11° SSE 21:05:27 90° ENE 21:10:31 10° NNW
SL-27 R/B 4.0 21:06:23 16° SE 21:07:55 21° E 21:10:40 10° NE
NOSS 2-1 (D) 4.3 21:08:17 17° SE 21:09:04 18° ESE 21:11:28 10° ENE
Cosmos 158 Rocket 4.1 21:04:03 10° SSW 21:09:15 85° WNW 21:14:37 10° NNE
ATLAS CENTAUR R/B 4.4 21:03:50 10° WNW 21:10:49 82° NNE 21:30:16 10° ESE
Cosmos 2026 Rocket 4.0 21:04:41 10° S 21:11:03 86° E 21:17:20 10° NNE
GP-B 3.3 21:06:48 10° N 21:11:15 76° W 21:15:41 10° S
ISS -1.3 21:12:46 10° WSW 21:14:19 13° SW 21:15:52 10° SSW
Cosmos 2333 Rocket 2.8 21:10:19 10° NNW 21:15:51 49° NE 21:20:38 13° ESE
Meteor 1-10 Rocket 4.3 21:12:56 10° N 21:18:29 63° ENE 21:22:51 16° SSE
Cosmos 1371 Rocket 4.1 21:13:36 10° NNW 21:19:01 83° WSW 21:23:22 16° SSE
Cosmos 1812 2.7 21:16:15 10° N 21:20:09 86° ENE 21:23:04 17° SSE
Spot 2 Rocket 4.2 21:15:11 10° S 21:20:10 52° W 21:25:11 10° NNW
Cosmos 220 Rocket 4.2 21:18:11 10° NNW 21:22:29 66° WSW 21:25:50 16° SSE
CZ-2C R/B 4.3 21:18:35 10° N 21:23:05 60° WNW 21:27:28 10° SSW
Cosmos 2112 Rocket 4.1 21:18:47 10° S 21:23:58 58° ESE 21:29:08 10° NNE
Cosmos 1680 Rocket 3.5 21:19:13 10° SSW 21:24:27 67° ESE 21:29:41 10° NNE
Cosmos 2322 4.2 21:20:33 10° NNW 21:26:11 55° NE 21:30:49 15° SE
Okean 3 Rocket 3.6 21:24:58 10° S 21:29:28 86° E 21:34:02 10° NNE
Cosmos 292 Rocket 3.8 21:25:31 10° NNW 21:30:18 73° ENE 21:33:40 19° SE
USA 234 3.4 21:23:48 10° ESE 21:30:22 80° NNE 21:36:57 10° WNW
Cosmos 2237 Rocket 3.9 21:31:23 10° NNW 21:36:11 27° NE 21:40:59 10° E
Cosmos 2322 Rocket 2.8 21:31:59 10° NW 21:37:23 49° WSW 21:41:46 15° S
Resurs 01 Rocket 4.3 21:40:41 10° WSW 21:42:47 13° W 21:44:54 10° WNW
Cosmos 2285 Rocket 4.4 21:36:44 10° NNW 21:42:58 57° ENE 21:47:42 18° SE
Cosmos 1408 Rocket 3.5 21:40:12 18° S 21:43:19 66° E 21:47:38 10° NNE
Cosmos 1743 Rocket 4.2 21:42:22 22° SSE 21:44:45 40° E 21:48:55 10° NNE
Cosmos 2315 Rocket 4.3 21:41:38 10° N 21:47:52 58° ENE 21:52:17 20° SSE
Gblst 52 Del rocket 4.5 21:43:02 10° W 21:49:02 73° SSW 21:55:58 10° ESE
Meteor 2-14 Rocket 4.5 21:43:59 10° S 21:50:06 88° W 21:56:18 10° N
Cosmos 1553 Rocket 4.3 21:44:21 10° NNW 21:50:20 61° W 21:55:36 14° S
Cosmos 2084 3.5 21:48:58 10° SSW 21:52:55 50° SE 21:57:00 10° NE
Sich 1 4.4 21:51:50 19° ESE 21:53:31 24° E 21:57:01 10° NE
Cosmos 2266 Rocket 4.0 21:53:29 19° S 21:58:02 66° E 22:04:14 10° NNE
Cosmos 2219 Rocket 2.2 21:53:36 10° NNW 21:59:14 75° ENE 22:02:58 22° SE
Cosmos 1862 3.5 21:57:03 16° SSW 22:00:07 72° WNW 22:04:07 10° N
SL-16 R/B 4.4 21:58:49 10° NNW 22:03:03 21° NNE 22:07:17 10° ENE
Cosmos 2228 Rocket 3.2 21:59:20 10° N 22:03:44 66° ENE 22:06:05 27° SSE
Cosmos 1515 Rocket 4.0 21:59:28 10° NNW 22:03:52 57° W 22:06:43 20° SSW
H-2A R/B 3.4 22:00:14 10° NNE 22:04:27 84° ESE 22:07:15 21° SSW
SL-16 R/B 3.8 22:01:00 10° NW 22:05:34 25° WSW 22:09:55 11° SSW
USA 40 PKM 4.2 22:02:23 10° WNW 22:06:20 89° NNE 22:08:39 21° ESE
NOSS 2-1 (E) 2.9 22:05:22 26° SSW 22:06:58 53° SE 22:10:27 10° NE
NOSS 3-1 (C) 4.1 22:01:11 10° NW 22:08:25 73° SW 22:14:30 21° SSE
Cosmos 2333 4.2 22:03:12 10° NW 22:08:49 73° WSW 22:12:13 24° SSE
Cosmos 1420 Rocket 4.5 22:05:15 10° NNW 22:10:27 55° WSW 22:13:43 22° S
COSMOS 2455 3.4 22:09:10 22° SSE 22:12:21 39° ESE 22:17:54 10° NE
Cosmos 883 Rocket 4.5 22:06:30 10° N 22:12:44 87° W 22:16:57 22° S
COSMOS 2428 2.7 22:08:14 10° NNW 22:13:59 79° ENE 22:17:35 24° SE
CZ-4C R/B 4.1 22:10:37 10° NW 22:16:28 38° NNE 22:23:26 10° E
Cosmos 1655 Rocket 4.1 22:12:45 16° S 22:17:56 85° W 22:24:24 10° N
Cosmos 1515 4.2 22:15:41 10° N 22:19:21 47° ENE 22:20:48 30° SE
USA 229 DEB 3.9 22:15:27 10° NW 22:22:42 84° SW 22:28:16 21° SE
USA 229 3.9 22:15:33 10° NW 22:22:48 85° SW 22:28:23 20° SE
Spot 4 3.8 22:21:45 28° SSE 22:24:20 80° ENE 22:29:12 10° NNW
Cosmos 1174 4.4 22:23:30 10° WNW 22:26:07 26° WSW 22:26:29 26° SW
ATLAS 5 CENTAUR R/B 2.2 22:20:56 10° NW 22:26:14 84° NE 22:30:39 20° SE
Cosmos 1452 Rocket 3.6 22:24:48 10° NNW 22:30:02 69° WSW 22:32:49 28° S
Cosmos 1707 Rocket 3.8 22:26:03 10° N 22:30:22 57° ENE 22:32:18 30° SE
Terra 3.5 22:26:49 12° SW 22:30:24 25° W 22:34:21 10° NW
COSMOS 2487 2.6 22:31:49 43° SE 22:32:24 49° ESE 22:35:43 10° NNE
ALOS 2 2.8 22:33:57 30° SE 22:36:00 62° ENE 22:40:21 10° N
USA 267 3.3 22:30:48 10° ENE 22:37:12 53° SE 22:43:34 10° SW
ATLAS 2AS CENTAUR R/B 4.3 22:31:02 10° W 22:38:22 41° NNW 22:45:22 10° NE
Meteor 1-27 Rocket 4.2 22:35:19 10° NNW 22:40:46 53° W 22:44:15 22° SSW
SL-27 R/B 3.7 22:39:50 14° SW 22:42:44 41° WNW 22:46:12 10° NNE
NOSS 3-1 (A) 4.1 22:35:51 10° NW 22:43:06 72° SW 22:48:48 23° SSE
Cosmos 2360 Rocket 3.7 22:44:19 10° NW 22:48:50 25° WSW 22:51:53 16° SW
Cosmos 1805 Rocket 3.6 22:49:13 31° SSW 22:51:21 83° W 22:55:49 10° N
NOSS 2-1 (C) 3.5 22:48:09 10° WSW 22:51:23 58° NW 22:54:57 10° NE
NOSS 2-2 (D) 4.4 22:50:00 10° NW 22:54:45 68° NE 23:00:43 13° ESE
Cosmos 1110 Rocket 4.0 22:50:46 10° NNW 22:56:06 77° WSW 22:58:40 31° SSE
Cosmos 1980 3.8 22:52:10 10° NNW 22:57:52 72° NE 23:01:19 24° SE
Meteor 1-20 Rocket 4.2 22:54:52 28° S 22:57:56 82° E 23:03:41 10° NNE
NOSS 2-1 (D) 3.7 22:55:54 10° WSW 22:59:06 51° NW 23:02:41 10° NE
Cosmos 2333 Rocket 3.0 22:54:50 10° NW 23:00:02 39° WSW 23:02:38 25° SSW
Cosmos 1331 Rocket 4.0 22:56:17 10° NNW 23:01:33 76° WSW 23:03:58 32° SSE
Cosmos 1244 Rocket 4.4 23:03:48 28° S 23:07:14 81° E 23:13:28 10° NNE
Cosmos 972 Rocket 4.2 23:07:27 21° SW 23:11:02 69° WNW 23:16:01 10° NNE
NOSS 0 Rocket 4.0 23:06:31 10° NW 23:12:45 72° WSW 23:16:01 29° SSE
USA 234 3.4 23:10:02 26° SSE 23:13:40 52° SW 23:20:04 10° WNW
Cosmos 1340 Rocket 4.3 23:13:35 22° ESE 23:14:28 24° E 23:17:39 10° NE
Okean 1-7 4.1 23:13:01 10° N 23:16:58 36° ENE 23:18:54 24° ESE
Cosmos 2297 Rocket 3.2 23:17:11 26° SE 23:19:04 32° ESE 23:24:03 10° NE
Cosmos 468 4.5 23:16:08 27° SSW 23:19:06 85° WNW 23:24:24 10° NNE
Cosmos 2237 Rocket 2.2 23:15:16 10° NNW 23:20:59 88° WSW 23:24:02 29° SSE
Lacrosse 5 3.1 23:21:59 23° SE 23:21:59 23° SE 23:25:54 10° ENE
Cosmos 2084 Rocket 3.3 23:18:33 10° NW 23:22:43 70° SW 23:24:07 40° SSE
Cosmos 2242 Rocket 4.4 23:18:54 10° N 23:23:07 42° ENE 23:25:08 26° SE
NOSS 2-2 (E) 4.2 23:18:49 10° NW 23:23:53 79° SW 23:28:32 22° SE
Meteor 1-18 Rocket 4.4 23:18:14 10° NNW 23:24:06 70° W 23:26:56 31° S
Cosmos 1500 3.1 23:26:57 47° S 23:28:00 90° ESE 23:31:53 10° N
Cosmos 1470 Rocket 3.7 23:29:03 39° SSE 23:30:25 59° E 23:34:42 10° NNE
Okean 1 4.0 23:26:46 10° NNW 23:30:36 43° W 23:31:46 33° SW
Cosmos 2227 Rocket 3.3 23:28:53 24° SE 23:30:49 30° ESE 23:35:40 10° NE
Sich 1 3.8 23:28:46 25° SW 23:30:57 45° WNW 23:35:09 10° N
Cosmos 1633 Rocket 3.0 23:33:06 38° SSW 23:34:45 79° WNW 23:39:08 10° N
Cosmos 494 Rocket 4.0 23:33:16 27° SW 23:36:05 77° WNW 23:41:15 10° NNE
Cosmos 1933 Rocket 4.1 23:35:34 33° SE 23:37:05 47° E 23:41:22 10° NNE
Cosmos 1666 Rocket 3.9 23:37:06 32° SW 23:38:59 61° WNW 23:43:25 10° N
Cosmos 2219 Rocket 3.6 23:38:18 10° NW 23:42:39 23° WSW 23:44:40 19° SW
Cosmos 1048 Rocket 4.4 23:39:38 20° SW 23:43:03 57° WNW 23:48:07 10° NNE
NOSS 2-2 (C) 4.3 23:43:06 10° NW 23:48:07 69° SW 23:52:23 23° SSE
SL-16 R/B 2.6 23:42:40 10° NNW 23:48:19 63° NE 23:52:42 17° SE
Cosmos 1992 Rocket 4.2 23:43:42 10° NNW 23:48:57 69° ENE 23:52:06 24° SE
PSLV R/B 4.0 23:45:38 10° NNE 23:50:23 59° E 23:52:12 35° SSE
Resurs 1-4 Rocket 4.3 23:48:49 10° NE 23:51:57 16° E 23:55:03 10° ESE
Cosmos 1269 Rocket 4.1 23:50:05 34° S 23:52:16 62° ESE 23:57:30 10° NNE
Cosmos 1302 Rocket 4.2 23:49:42 10° NNW 23:54:48 55° WSW 23:56:50 34° SSW
